Ana Sayfa
METAR-TAF:

METAR-TAF

Havaalanları :

Grangeville, Idaho, Amerika Birleşik Devletleri

Enlem: 45-56-33N, Boylam: 116-07-24W, yükseklik: 1010 m

Güncel hava durumu gözlemi

Rapor saat 01:55 UTC de 12 dakika önce yapıldı.
Rüzgar doğu/güneydoğudan 3 kt
Sıcaklık 7°C
Nem 81%
Basınç 1009 hPa
Görüş mesafesi: 16.1 km
11000 ft yükseklikte parçalı bulutlu

METAR: KGIC 190155Z AUTO 11003KT 10SM SCT110 07/04 A2981 RMK AO1

Saat: 18:07 (02:07 UTC)


TAF: eksik

4.000'den fazla havaalanı için hava durumu gözlemleri ve tahminleri (METAR ve TAF raporları).

Kullanılabilir istasyonlar harita üzerinde sarı ve kırmızı noktalarla gösterilir.

İstasyonun adını görmek için fareyi noktanın üzerinde gezdirin.

Sonrasında hava gözlem ve tahminlerini görmek için tıklayın.

Haritayı değiştirmek için: yaklaştırmak için siyah artı işaretli yeşil düğmeye ve uzaklaştırmak için de eksi işaretli düğmeye hızla tıklayın; bitişik haritalar için yeşil okları kullanın.


METAR-TAF: